Regional Weather Roundup
Issued by NWS Wakefield, VA

Home | Current Version | Previous Version | Graphics & Text | Print | Product List | Glossary On
Versions: 1 2 3 4 5 6 7 8 9 10 11 12 13 14 15 16 17 18 19 20 21 22 23 24 25 26 27 28 29 30 31 32 33 34 35 36 37 38 39 40 41 42 43 44 45 46 47 48 49 50
000
ASUS41 KAKQ 220310
RWRAKQ

REGIONAL WEATHER ROUNDUP
NATIONAL WEATHER SERVICE WAKEFIELD VA
1000 PM EST SUN DEC 21 2014

Note: "fair" indicates few or no clouds below 12,000 feet with no
significant weather and/or obstructions to visibility. * = Denotes
station may not report precipitation (e.g., rain,snow,etc.),
thunder or fog.

VAZ042-051-052>054-056-220400-
NORTHERN VIRGINIA

CITY           SKY/WX    TMP DP  RH WIND       PRES   REMARKS
WASH NATIONAL  PTCLDY    37  26  64 NE7       30.35R
DULLES         PTCLDY    26  21  81 CALM      30.33R
FORT BELVOIR   CLEAR     27  24  88 CALM      30.34S
QUANTICO       CLEAR     30  25  81 NW7       30.35R
FREDERICKSBRG* PTCLDY    28  25  91 CALM      30.33R
STAFFORD*      PTCLDY    26  26 100 CALM      30.38R
WARRENTON      CLEAR     24  24 100 CALM      30.32R
CULPEPER*      CLEAR     27  25  93 CALM      30.32S
MANASSAS*      CLEAR     25  21  86 CALM      30.33S
LEESBURG*      CLEAR     32  28  86 N3        30.34R
WINCHESTER     CLEAR     30  21  69 CALM      30.29S
FRONT ROYAL*   PTCLDY    30  25  80 NW3       30.28S
LURAY*         PTCLDY    28  27  93 CALM      30.28R
$$

VAZ048-049-060>072-079>083-220400-
CENTRAL AND SOUTH CENTRAL VIRGINIA

CITY           SKY/WX    TMP DP  RH WIND       PRES   REMARKS
RICHMOND       CLOUDY    36  28  73 NE6       30.30F
CHESTERFIELD*  MOCLDY    36  19  51 E6        30.30F
PETERSBURG*    MOCLDY    33  31  89 CALM      30.31S
HANOVER        CLOUDY    32  27  81 NE3       30.32F
TAPPAHANNOCK*  MOCLDY    29  25  83 CALM      30.32F
QUINTON*       MOCLDY    31  28  88 CALM      30.31F
CHARLOTTSVILLE CLOUDY    32  25  75 N3        30.29S
GORDONSVILLE*  PTCLDY    26  24  91 CALM      30.30S
ORANGE*        PTCLDY    28  27  93 CALM      30.32S
LOUISA*        MOCLDY    28  27  93 E3        30.29S
BUMPASS*       PTCLDY    29  25  84 CALM      30.30S
FARMVILLE*     CLOUDY    39  29  67 N3        30.28R
CREWE*         MOCLDY    31  28  89 CALM      30.28S
FORT PICKETT*  MOCLDY    34  28  80 E5        30.29R
CHASE CITY*    MOCLDY    38  32  80 NE5       30.27S
CLARKSVILLE*   MOCLDY    37  32  81 NE5       30.25S
SOUTH HILL*    MOCLDY    34  29  83 CALM      30.34R
LAWRENCEVILLE* MOCLDY    34  30  85 CALM      30.28S
EMPORIA*       MOCLDY    32  30  93 CALM      30.31S
$$

VAZ088>098-220400-
SOUTHEAST VIRGINIA

CITY           SKY/WX    TMP DP  RH WIND       PRES   REMARKS
NORFOLK        FAIR      39  31  72 NE9       30.29F
VIRGINIA BEACH MOCLDY    40  33  76 NE7       30.29S
NORFOLK NAVAL  MOCLDY    42  32  67 NE9       30.31S
WEST POINT*    CLOUDY    35  31  85 CALM      30.32F
SALUDA*        MOCLDY    31  28  86 CALM      30.31S
NEWPORT NEWS   CLEAR     34  29  82 NE5       30.30F
LANGLEY AFB    CLEAR     34  30  83 NE8       30.31F
FORT EUSTIS    PTCLDY    35  30  80 E3        30.29S
WILLIAMSBURG*  PTCLDY    36  32  87 CALM      30.31F
HR EXEC AP*    FAIR      27  23  86 CALM      30.31F
FRANKLIN*      PTCLDY    30  28  93 CALM      30.30S
WAKEFIELD      PTCLDY    32  29  88 CALM      30.30F
$$

VAZ020-022-025-037-045-220400-
WEST CENTRAL AND SOUTHWEST VIRGINIA

CITY           SKY/WX    TMP DP  RH WIND       PRES   REMARKS
STAUNTON*      PTCLDY    28  24  84 CALM      30.27S
WAYNESBORO*    CLOUDY    34  26  73 E3        30.24S
HOT SPRINGS VA CLOUDY    30  30 100 SE6       30.12R
LYNCHBURG      CLOUDY    38  29  70 E5        30.27S
DANVILLE       CLOUDY    36  30  79 NE5       30.24F
SOUTH BOSTON*  MOCLDY    35  30  81 CALM      30.26F
MARTINSVILLE   CLOUDY    40  33  74 CALM      30.25F
ROANOKE        CLOUDY    40  30  67 SE7       30.26R
BLACKSBURG     CLOUDY    36  31  81 E8        30.22S
DUBLIN*        CLOUDY    39  35  84 SE8       30.19S
MARION*        CLOUDY    39  34  81 E7        30.15F
HILLSVILLE*    CLOUDY    35  33  90 SE6       30.15F
RICHLANDS*     MOCLDY    37  31  78 SE12G17   30.09F
WISE*          PTCLDY    37  32  81 S3        30.09S
ABINGDON*      MOCLDY    40  34  79 E6        30.11S
$$

MDZ021>025-VAZ099-100-220400-
SOUTHERN MARYLAND AND THE DELMARVA PENINSULA

CITY           SKY/WX    TMP DP  RH WIND       PRES   REMARKS
PATUXENT RIVER PTCLDY    26  21  81 CALM      30.32F
BAY BRIDGE APT   N/A     32  27  80 NE3       30.35R
LEONARDTOWN    PTCLDY    28  27  93 CALM      30.34S
DOVER          CLEAR     27  24  87 NW5       30.32S
GEORGETOWN     CLEAR     28  23  81 CALM      30.33F
EASTON         FAIR      31  26  80 CALM      30.38R
CAMBRIDGE      CLEAR     30  27  86 NE3       30.33S
SALISBURY      CLEAR     29  23  78 CALM      30.33S
OCEAN CITY     PTCLDY    26  23  88 CALM      30.33F FOG
WALLOPS ISLAND PTCLDY    31  27  85 N3        30.32F
ACCOMACK*      MOCLDY    30  27  86 NE3       30.30F
$$

NCZ012>017-030>032-220400-
NORTH CENTRAL AND EASTERN NORTH CAROLINA

CITY           SKY/WX    TMP DP  RH WIND       PRES   REMARKS
ROANOKE RAPIDS MOCLDY    34  32  93 NE3       30.29R
RALEIGH        CLOUDY    43  31  62 E7        30.23F
ELIZABETH CITY PTCLDY    41  34  76 N8        30.26F
AHOSKIE*       MOCLDY    34  29  83 N3        30.29F
EDENTON*         N/A     38  33  82 NE7       30.26F
CURRITUCK*     PTCLDY    42  36  77 NE6       30.28F
KILL DEVIL HLS PTCLDY    46  41  83 NE8       30.23F
MANTEO         PTCLDY    46  41  84 NE17      30.24F
CAPE HATTERAS  CLOUDY    48  45  89 NE10      30.21F
TARBORO*       CLOUDY    41  34  75 E6        30.29R
GOLDSBORO      CLOUDY    45  40  85 NE10      30.21F
WASHINGTON     CLOUDY    40  34  79 NE7       30.26R
GREENVILLE     CLOUDY    43  36  75 NE6       30.27R
NEW BERN       RAIN      44  39  82 NE7       30.24F
WILMINGTON     CLOUDY    43  41  93 NE10      30.18F
$$

VAZ048-220400-
ELSEWHERE

CITY           SKY/WX    TMP DP  RH WIND       PRES   REMARKS
HARRISBURG PA  PTCLDY    24  20  84 CALM      30.33S
BALTIMORE      PTCLDY    31  22  69 NE5       30.34R
ANNAPOLIS        N/A     34  25  69 N3        30.34S
ANDREWS AFB    PTCLDY    28  23  79 E3        30.32R
PHILADELPHIA   CLEAR     34  22  61 VRB3      30.35F
HENDERSON NC   CLOUDY    37  31  79 NE6       30.25F
GREENSBORO     CLOUDY    41  33  73 E7        30.21S
ROCKY MOUNT    CLOUDY    42  34  73 NE7       30.26S
$$

VAZ100-220400-
MARINE

STATION/POSITION TIME  TEMP    WIND        PRES    WAVE   SWELL
                       AIR SEA DIR/SP/G            HT/PER HT/PER
                 (UTC) (F)     (DEG/KT/KT) (MB)    (FT/S) (FT/S)
CAPE MAY NJ      0300   32 43   50/  3/  5 1026.6F
LEWES DE         0300   37 42   50/ 11/ 12 1026.8F
15NM E FENWICK I 0300   39 45              1026.6F   2/10
OCEAN-CITY-INLET 0300   35 44  330/  3/  3 1026.7R
WACHAPREAGUE VA  0300   32 41  320/  2/  3 1026.1F
THOMAS POINT MD  0300   35 41   50/  8/  9 1028.5R
GOOSES REEF MD   0300   37     VRB 12/ 16  1026.1F   1
COVE POINT MD    0300   36      80/  7/  8 1026.7F
SOLOMONS ISLAND  0300      43                N/A
BISHOPS HEAD MD  0300   36 37   40/  7/  9 1026.1F
POTOMAC MD       0300   39 43   60/  8/ 10 1025.7S   0
CAMBRIDGE MD     0300   35 40   50/  5/  6 1026.9F
LEWISETTA VA     0300   39 41   60/  3/  5 1026.4R
RAPPAHANNOCK LGT 0300           40/  8/ 10 1026.8S
STINGRAY PT      0300   40 44   80/  8/ 10 1026.8S   1/ 2
YORK RVR RNG VA  0300   40      70/  9/ 10 1025.7F
YORKTOWN VA      0300   39 45   40/  8/  9 1025.9F
JAMESTOWN VA     0300   37 45   90/  4/  4   N/A     0
DOMINION TERM VA 0300   39      40/  4/  6 1025.9F
KIPTOPEKE VA     0300      48   40/  5/  6   N/A
CHES BAY BRIDGE  0300   41 46   30/ 10/ 12 1025.4F
CAPE HENRY VA    0300   42      50/ 12/ 15 1024.6F
CHESAPEAKE LGHT  0200   43      50/ 13/ 15 1026.4F
WILLOUBY STN VA  0300   41      60/ 11/ 12 1026.1F
S CRANEY ISL VA  0300           60/  7/  9 1025.5F
CAPE HENRY BUOY  0200      49                N/A     2/11
1ST LANDING BUOY 0300   41 46   20/ 12/ 14 1025.4F   1/ 3
CAPE CHARLES BUO 0200      47                N/A     2/10   2/10
64NM E OF VA BCH 0300   48 54   50/ 14/ 16 1024.8F   3/ 4   2/10
DUCK PIER NC     0300   46 46   40/ 18/ 19 1023.7F
44100 DUCK FRF   0200      50                N/A     3/11
44056 DUCK FRF   0300      46                N/A     3/ 4
OREGON INLET NC  0300   47 48   20/ 13/ 18 1023.6F
HATTERAS NC      0300   48 49   30/ 13/ 17 1023.1F
DIAMOND SHLS NC  0300   57                 1022.0F   4/ 5
CAPE LOOKOUT NC  0200   46      20/ 15/ 20 1022.3S
$$


USA.gov is the U.S. government's official web portal to all federal, state and local government web resources and services.